Miscellaneous Local Product
Issued by NWS Hastings, NE

Home | Current Version | Previous Version | Text Only | Print | Product List | Glossary Off
Versions: 1 2 3 4 5 6 7 8 9 10 11 12 13 14 15 16 17 18 19 20 21 22 23 24 25 26 27 28 29 30 31 32 33 34 35 36 37 38 39 40 41 42 43 44 45 46 47 48 49 50

000
AXUS43 KGID 260602
MISGRI

GID CWA HOURLY WEATHER ROUNDUP
NATIONAL WEATHER SERVICE HASTINGS NE
100 AM CDT THU MAY 26 2016

NOTE: "FAIR" INDICATES FEW OR NO CLOUDS BELOW 12,000 FEET WITH NO
SIGNIFICANT WEATHER AND/OR OBSTRUCTIONS TO VISIBILITY.

...SOUTH CENTRAL NEBRASKA...

CITY           SKY/WX    TMP DP  RH WIND       PRES   REMARKS
GRAND ISLAND   CLOUDY    60  54  80 S9        29.88R
HASTINGS       MOCLDY    62  52  69 VRB5      29.89F
KEARNEY        MOCLDY    61  52  72 E12       29.81F
ORD            MOCLDY    58  54  86 N3        29.88R
YORK           CLOUDY    61  54  77 N5        29.86F
AURORA         CLOUDY    61  56  82 N9        29.89F
LEXINGTON      PTCLDY    61  50  68 S8        29.87F
HOLDREGE       CLOUDY    64  46  52 N8G16     29.86F
HEBRON         PTCLDY    64  54  70 N12G20    29.90F

...NEBRASKA PANHANDLE...

CITY           SKY/WX    TMP DP  RH WIND       PRES   REMARKS
CHADRON        CLOUDY    45  42  89 W7        29.92S
ALLIANCE       CLOUDY    50  45  83 NE3       29.93F
SCOTTSBLUFF    CLOUDY    49  44  83 N7        29.95F
SIDNEY         CLEAR     45  42  89 W5        29.97F

...WESTERN AND NORTH CENTRAL NEBRASKA...

CITY           SKY/WX    TMP DP  RH WIND       PRES   REMARKS
VALENTINE      CLOUDY    51  47  86 SE9       29.91S
AINSWORTH      CLOUDY    53  48  85 S3        29.92F
ONEILL         MOCLDY    61  53  74 W3        29.89R
BROKEN BOW     CLOUDY    57  52  83 CALM      29.90F
IMPERIAL       CLEAR     53  49  86 N6        29.93S
NORTH PLATTE   CLOUDY    55  52  89 W5        29.93S
MCCOOK         CLEAR     57  49  74 NE5       29.88R

...EASTERN NEBRASKA...

CITY           SKY/WX    TMP DP  RH WIND       PRES   REMARKS
NORFOLK        CLOUDY    63  55  75 S15       29.87R
SO SIOUX CITY  TSTM      63  58  83 SE16      29.81F
TEKAMAH        CLOUDY    66  63  90 S5        29.83R
COLUMBUS       CLOUDY    61  52  72 NW10      29.87F
ALBION         CLOUDY    61  53  76 W5        29.87F
OMAHA EPPLEY   CLOUDY    71  66  84 CALM      29.82F
OFFUTT AFB     TSTM      68  68 100 SW3       29.81F
MILLARD        CLOUDY    69  67  94 CALM      29.84R
LINCOLN        CLOUDY    65  56  72 NW7       29.89R THUNDER
NEBRASKA CITY  CLOUDY    70  70 100 SE5       29.84R
BEATRICE       PTCLDY    70  69  96 W6        29.86R
FALLS CITY     CLOUDY    65  62  90 E7        29.83R

...NORTHERN KANSAS...

CITY           SKY/WX    TMP DP  RH WIND       PRES   REMARKS
GOODLAND       CLEAR     51  47  86 E8        29.93R
HILL CITY      CLEAR     56  51  84 E8        29.88F
NORTON         CLEAR     57  46  67 E8        29.86F
PHILLIPSBURG   CLEAR     57  52  82 E9        29.87F
SMITH CENTER   CLEAR     57  52  82 N13G18    29.89F
BELOIT         CLEAR     63  55  77 N14       29.89R
HAYS           CLEAR     54  48  82 NE12      29.91S
RUSSELL        PTCLDY    64  58  80 N15       29.89S
CONCORDIA      MOCLDY    67  57  70 N21       29.90R
SALINA         CLEAR     68  67  96 N5        29.85R
TOPEKA         CLOUDY    68  59  73 S3        29.83S



USA.gov is the U.S. government's official web portal to all federal, state and local government web resources and services.